Regional Weather Roundup
Issued by NWS

Home | Current Version | Previous Version | Text Only | Print | Product List | Glossary On
Versions: 1 2 3 4 5 6 7 8 9 10 11 12 13 14 15 16 17 18 19 20 21 22 23 24 25 26 27 28 29 30 31 32 33 34 35 36 37 38 39 40 41 42 43 44 45 46 47 48 49 50
000
ASUS43 KMPX 271910
RWRMN
WEATHER ROUNDUP FOR MINNESOTA
NATIONAL WEATHER SERVICE TWIN CITIES/CHANHASSEN MN
200 PM CDT TUE SEP 27 2016


NOTE: "FAIR" INDICATES FEW OR NO CLOUDS BELOW 12,000 FEET WITH NO
SIGNIFICANT WEATHER AND/OR OBSTRUCTIONS TO VISIBILITY. N/A MEANS
CURRENT SKY AND/OR WEATHER CONDITIONS ARE NOT AVAILABLE.

MNZ060>063-068>070-272000-
   Twin Cities Metro

CITY           SKY/WX    TMP DP  RH WIND       PRES   REMARKS
TWIN CITIES    CLOUDY    58  42  55 NW17      29.78F
ST PAUL        PTSUNNY   58  42  55 NW20G25   29.78F
CRYSTAL        MOSUNNY   59  40  49 NW18G29   29.78F
BLAINE         PTSUNNY   57  45  62 NW12G21   29.78F
LAKEVILLE      CLOUDY    61  39  44 W13G25    29.77F
EDEN PRAIRIE   MOSUNNY   62  40  44 NW15G23   29.77F
LAKEVILLE      CLOUDY    61  39  44 W13G25    29.77F
SOUTH ST PAUL  PTSUNNY   58  41  53 NW13G20   29.77F
LAKE ELMO      CLOUDY    55  43  62 W13       29.79F
$$
MNZ001>005-007-008-013>017-022>024-027-028-272000-
   Northwest Minnesota

CITY           SKY/WX    TMP DP  RH WIND       PRES   REMARKS
BEMIDJI        LGT RAIN  47  46  94 NW10G18   29.82S
HALLOCK        CLOUDY    55  45  67 NW16      29.88S
ROSEAU         CLOUDY    52  45  76 N9        29.85R
WARROAD        CLOUDY    46  43  87 N8        29.85S
THIEF RVR FALL CLOUDY    51  43  74 NW15      29.87F
CROOKSTON      PTSUNNY   55  43  62 N22G28    29.89S
FOSSTON        CLOUDY    48  41  76 NW17G23   29.86S
DETROIT LAKES  PTSUNNY   54  43  66 NW18G29   29.87S
MOORHEAD       SUNNY     61  39  44 N17       29.87S
PARK RAPIDS    CLOUDY    51  40  65 NW17      29.82S
MAHNOMEN       CLOUDY    52  42  67 NW20G28   29.86F
$$
MNZ006-009>011-018-025>026-272000-
   North Central Minnesota

CITY           SKY/WX    TMP DP  RH WIND       PRES   REMARKS
BAUDETTE       CLOUDY    48  44  86 NW14      29.82R
FLAG ISLAND    CLOUDY    46  43  87 N20       29.83R
INTL FALLS     CLOUDY    49  46  90 NW13G20   29.76S
WASKISH        LGT RAIN  46  45  93 N9G17     29.81S
BIG FORK       LGT RAIN  46  45  93 N5        29.78R
GRAND RAPIDS   LGT RAIN  47  45  93 N14       29.79R
ORR            CLOUDY    46  43  87 NW8       29.72S
COOK           LGT RAIN  46  43  87 NW9       29.74R
WALKER         LGT RAIN  46  44  93 NW9       29.81S
$$
MNZ012-019>021-037-272000-
   Northeast Minnesota

CITY           SKY/WX    TMP DP  RH WIND       PRES   REMARKS
DULUTH         LGT RAIN  48  45  89 NW14      29.70R
ELY            CLOUDY    46  43  87 NW6G17    29.69S
HIBBING        LGT RAIN  46  43  89 N16       29.74R
EVELETH        LGT RAIN  47  43  87 NW10G18   29.73R
DULUTH HARBOR  RAIN      52  46  82 W17       29.72R
TWO HARBORS    LGT RAIN  52  46  82 NW7       29.67R
SILVER BAY     CLOUDY    52  45  76 NW5       29.64S
GRAND MARAIS     N/A     55  45  68 N9G28     29.58R
G MARAIS ARPRT CLOUDY    48  43  81 NW14G22   29.62R
$$
MNZ029>031-032-039>041-046>048-054>057-064-272000-
   West Central Minnesota

CITY           SKY/WX    TMP DP  RH WIND       PRES   REMARKS
FERGUS FALLS   SUNNY     61  41  48 N16G24    29.87S
WHEATON        SUNNY     66  37  34 NW16G28   29.88F
MORRIS         SUNNY     66  34  30 NW16G31   29.84F
ALEXANDRIA     CLOUDY    59  38  45 NW17G24   29.84F
ELBOW LAKE     FAIR      59  39  46 W20G26    29.85F
WADENA         CLOUDY    54  41  62 NW16G23   29.84R
GLENWOOD       PTSUNNY   61  37  41 NW21G31   29.84S
BENSON         SUNNY     66  30  26 N17G31    29.84F
ORTONVILLE     SUNNY     64  30  27 NW14G26   29.86F
MADISON        SUNNY     70  34  26 NW17G23   29.86F
WILLMAR        FAIR      63  36  36 NW24      29.85S
$$
MNZ033>034-036-042>043-049>051-058-059-272000-
   Central Minnesota

CITY           SKY/WX    TMP DP  RH WIND       PRES   REMARKS
ST CLOUD       PTSUNNY   56  43  61 NW15G21   29.80S
SAUK CENTRE    FAIR      56  40  53 NW16G25   29.82F
PAYNESVILLE    CLOUDY    60  36  41 NW18G25   29.82F
AITKIN         MIX PCPN  50  45  81 NW3       29.78R
PINE RIVER     LGT RAIN  48  45  87 NW7G16    29.85R
BRAINERD       CLOUDY    50  43  77 NW13      29.81R
STAPLES        CLOUDY    52  39  62 NW15      29.83R
LONG PRAIRIE   FAIR      54  41  62 W13G24    29.83S
LITTLE FALLS   CLOUDY    54  41  62 NW10      29.82R
LITCHFIELD     PTSUNNY   61  39  44 NW14G26   29.82S
BUFFALO        CLOUDY    58  40  50 W14G20    29.80F
MAPLE LAKE     PTSUNNY   58  43  55 NW13G22   29.81S
HUTCHINSON     SUNNY     62  39  42 W15G24    29.82F
$$
MNZ037-044-045-052-053-272000-
   East Central Minnesota

CITY           SKY/WX    TMP DP  RH WIND       PRES   REMARKS
PRINCETON      CLOUDY    55  43  62 W15G21    29.79S
MORA           LGT RAIN  50  45  81 NW13      29.80R
CAMBRIDGE      CLOUDY    55  43  62 NW10G20   29.77S
MOOSE LAKE     RAIN      48  45  87 NW8       29.74R
HINCKLEY       LGT RAIN  50  46  87 W7        29.77R
CLOQUET        LGT RAIN  48  45  87 NW9       29.73R
MCGREGOR       CLOUDY    48  45  87 NW10      29.77S
$$
MNZ071>073-080-081-089-090-097-098-272000-
   Southwest Minnesota

CITY           SKY/WX    TMP DP  RH WIND       PRES   REMARKS
MONTEVIDEO     SUNNY     66  36  32 N16G22    29.87F
GRANITE FALLS  SUNNY     67  36  30 W16G23    29.87F
CANBY          SUNNY     67  33  27 NW18G24   29.88F
MARSHALL       SUNNY     68  32  26 NW18G29   29.86F
REDWOOD FALLS  SUNNY     66  33  29 NW21G29   29.84F
OLIVIA         SUNNY     64  36  34 W17G26    29.83F
PIPESTONE      SUNNY     68  34  28 NW16G24   29.90F
WINDOM         SUNNY     68  27  21 W22G29    29.86F
WORTHINGTON    SUNNY     67  39  35 NW20G30   29.88F
JACKSON        SUNNY     70  25  18 W18G28    29.87F
TRACY          SUNNY     69  32  25 NW17G23   29.87F
SLAYTON        SUNNY     66  32  28 NW23      29.88F
$$
MNZ065>067-074>077-082>085-091>093-272000-
   South Central Minnesota

CITY           SKY/WX    TMP DP  RH WIND       PRES   REMARKS
MANKATO        SUNNY     63  33  32 NW20G31   29.81F
NEW ULM        SUNNY     64  36  34 W18G25    29.82F
ST JAMES       SUNNY     66  34  30 W15G22    29.85F
FAIRMONT       SUNNY     67  30  25 NW18G31   29.85F
GLENCOE        CLOUDY    62  39  42 NW18G28   29.80F
FARIBAULT      CLOUDY    63  37  39 W16       29.80F
OWATONNA       CLOUDY    63  32  31 W21G29    29.80F
WASECA         MOSUNNY   63  34  34 W20G29    29.82F
ALBERT LEA     SUNNY     64  34  32 W16G24    29.81F
$$
MNZ078>079-086>088-094>096-272000-
   Southeast Minnesota

CITY           SKY/WX    TMP DP  RH WIND       PRES   REMARKS
ROCHESTER      MOSUNNY   62  38  40 W15G28    29.78F
RED WING       PTSUNNY   61  39  44 NW12G24   29.76F
STANTON        MOSUNNY   62  39  43 W22G28    29.77F
DODGE CENTER   PTSUNNY   63  36  36 W17G28    29.78F
WINONA         CLOUDY    59  43  55 NW18G28   29.76F
AUSTIN         MOSUNNY   63  34  34 NW16G25   29.80F
PRESTON        SUNNY     60  36  41 NW21G30   29.79F
$$
ABBREVIATIONS USED IN REMARKS
   TC - TEMPERATURES IN CELSIUS
  WCI - WIND CHILL INDEX
   HX - HEAT INDEX
  VSB - VISIBILITY
$$




USA.gov is the U.S. government's official web portal to all federal, state and local government web resources and services.